{"data":{"norad_id":40061,"intl_designator":"2014-036A","name":"GONETS-M 8","alt_names":[],"object_type":"PAYLOAD","status":"ACTIVE","operator":null,"country":"CIS","launch_date":"2014-07-03","launch_site_code":"PLMSC","launch_vehicle":null,"mission":null,"orbit_class":"UNKNOWN","rcs_meters":1.7159,"size_class":null,"mass_kg":null,"dimensions":null,"purposes":[],"wikipedia_slug":null,"has_3d_model":false,"image_url":null,"decayed_at":null,"tle_current":{"epoch":"2026-05-25T04:30:07.103808Z","epoch_age_seconds":62132,"freshness":"FRESH","line1":"1 40061U 14036A   26145.18758222  .00000009  00000+0 -44389-5 0  9990","line2":"2 40061  82.5103 321.8728 0029617 197.5822 162.4235 12.42984442539596","mean_motion":12.42984442,"eccentricity":0.0029617,"inclination_deg":82.5103,"raan_deg":321.8728,"arg_perigee_deg":197.5822,"mean_anomaly_deg":162.4235,"bstar":-4.4389e-6,"rev_number":53959,"period_min":115.85020305508,"perigee_km":1470.6622462968,"apogee_km":1517.2919268773,"semimajor_km":7872.1140865871,"source":"CELESTRAK","updated_at":"2026-05-25T13:37:55.466513Z"}}}